This is the latest recevied weather packets stored in our database for station/object SQ2LXT-10. If no packets are shown the sender has not sent any weather packets the latest 10 day(s).
| Time | Temp. | Humidity | Pressure | Rain* | Wind** | Luminosity | Snow |
|---|---|---|---|---|---|---|---|
| 1777626919 | 16.67° C | 51% | 1022.1 hPa | - | - | - | - |
| 1777626019 | 16.67° C | 48% | 1022.3 hPa | - | - | - | - |
| 1777625118 | 16.11° C | 50% | 1022.4 hPa | - | - | - | - |
| 1777624218 | 15.56° C | 53% | 1022.4 hPa | - | - | - | - |
| 1777623321 | 15° C | 53% | 1022.4 hPa | - | - | - | - |
| 1777622418 | 14.44° C | 56% | 1022.5 hPa | - | - | - | - |
| 1777620618 | 13.33° C | 64% | 1022.4 hPa | - | - | - | - |
| 1777619721 | 12.78° C | 70% | 1022.4 hPa | - | - | - | - |
| 1777618818 | 11.67° C | 75% | 1022.4 hPa | - | - | - | - |
| 1777617918 | 11.11° C | 82% | 1022.5 hPa | - | - | - | - |
| 1777617018 | 11.11° C | 81% | 1022.3 hPa | - | - | - | - |
| 1777616117 | 10° C | 86% | 1022.3 hPa | - | - | - | - |
| 1777615218 | 8.89° C | 97% | 1022.4 hPa | - | - | - | - |
| 1777614321 | 8.33° C | 100% | 1022.2 hPa | - | - | - | - |
| 1777613418 | 7.78° C | 100% | 1022.3 hPa | - | - | - | - |
| 1777612517 | 10.56° C | 56% | 1022.2 hPa | - | - | - | - |
| 1777611618 | 18.89° C | 38% | 1022.3 hPa | - | - | - | - |
| 1777610721 | 17.78° C | 40% | 1022.1 hPa | - | - | - | - |
| 1777609818 | 19.44° C | 40% | 1022.2 hPa | - | - | - | - |
| 1777608917 | 16.11° C | 55% | 1022.2 hPa | - | - | - | - |
| 1777608018 | 12.22° C | 100% | 1022.1 hPa | - | - | - | - |
| 1777607117 | 0.56° C | 100% | 1022.1 hPa | - | - | - | - |
| 1777606218 | 0° C | 100% | 1022.1 hPa | - | - | - | - |
| 1777605317 | 0° C | 100% | 1022.1 hPa | - | - | - | - |
| 1777604417 | 0° C | 100% | 1022.2 hPa | - | - | - | - |
* Rain since midnight (hover to see other rain measurements)
** Current wind speed in m/s (hover to see current wind gust speed)